Regional Weather Roundup
Issued by NWS

Home | Current Version | Previous Version | Graphics & Text | Print | Product List | Glossary On
Versions: 1 2 3 4 5 6 7 8 9 10 11 12 13 14 15 16 17 18 19 20 21 22 23 24 25 26 27 28 29 30 31 32 33 34 35 36 37 38 39 40 41 42 43 44 45 46 47 48 49 50
000
ASUS45 KBOU 240607
RWRCO

WEATHER ROUNDUP FOR COLORADO
NATIONAL WEATHER SERVICE DENVER/BOULDER CO
1200 AM MDT MON JUL 24 2017

NOTE: "FAIR" INDICATES FEW OR NO CLOUDS BELOW 12000 FEET WITH NO
SIGNIFICANT WEATHER AND/OR OBSTRUCTIONS TO VISIBILITY.

COZ001>005-013-030-031-240700-
...NORTHWEST COLORADO...

CITY           SKY/WX    TMP DP  RH WIND       PRES   REMARKS
CRAIG          FAIR      57  48  72 CALM      30.16R
HAYDEN         FAIR      63  34  34 S6        30.20R
MEEKER         FAIR      62  40  44 VRB5      30.20R
RABBIT EARS PA FAIR      55  37  50 CALM      30.53S
STEAMBOAT SPGS FAIR      64  40  41 CALM      30.22R
WALDEN         FAIR      57  37  47 SE3       30.35S
$$

COZ006>008-011-240700-
...WEST CENTRAL VALLEYS...

CITY           SKY/WX    TMP DP  RH WIND       PRES   REMARKS
GRAND JUNCTION FAIR      81  47  30 S14       30.07S
MONTROSE       FAIR      73  46  38 SE10      30.18F
EAGLE          FAIR      68  47  46 CALM      30.26R
RIFLE          FAIR      76  45  33 SE13      30.14R
DELTA          FAIR      73  45  36 CALM      30.15S
NUCLA          FAIR      68  46  45 E8        30.22S
$$

COZ017>023-064>068-240700-
...SOUTHWEST COLORADO...

CITY           SKY/WX    TMP DP  RH WIND       PRES   REMARKS
DURANGO        CLOUDY    67  50  54 CALM      30.28R
CORTEZ         MOCLDY    70  54  56 VRB6      30.20R
PAGOSA SPRINGS CLOUDY    65  48  53 CALM      30.35F
TELLURIDE      FAIR      57  48  72 SE5       30.46S
WOLF CREEK PAS NOT AVBL
$$

COZ009-010-012-014-032>034-037-058>063-240700-
...CENTRAL COLORADO...

CITY           SKY/WX    TMP DP  RH WIND       PRES   REMARKS
ASPEN          FAIR      65  42  43 SE12      30.33S
BUENA VISTA    FAIR      58  51  75 N3        30.40S
COPPER MTN     FAIR      54  34  47 S18       30.68S
BERTHOUD PASS  FAIR      45  32  61 W17G30    30.70S
COTTONWOOD PAS FAIR      61  37  41 SW3       30.54S
GUNNISON       FAIR      60  52  74 CALM      30.40F
KREMMLING      FAIR      68  43  40 SE8       30.31S
LEADVILLE      FAIR      52  43  71 NE3       30.51S
SALIDA         FAIR      64  49  58 CALM      30.45S
SUNLIGHT       FAIR      54  36  50 S5        30.59S
WILKERSON PASS FAIR      48  41  76 S15G22    30.65S
$$

COZ069>075-240700-
...SAN LUIS VALLEY/SANGRE DE CRISTO MOUNTAINS...

CITY           SKY/WX    TMP DP  RH WIND       PRES   REMARKS
ALAMOSA        FAIR      60  52  74 SW3       30.34R
DEL NORTE      FAIR      59  47  62 W7        30.38S
LA VETA PASS   NOT AVBL
SAGUACHE         N/A    N/A N/A N/A MISG        N/A
$$

COZ035-036-038>040-240700-
...NORTHERN COLORADO FRONT RANGE...

CITY           SKY/WX    TMP DP  RH WIND       PRES   REMARKS
DENVER INTL AP FAIR      73  52  47 S21       30.14F
DMNS CITY PARK   N/A     76  51  40 S13G24    30.13S
AURORA         PTCLDY    72  54  52 S16       30.18R
FRONT RANGE AP FAIR      73  54  49 S13       30.17S
ERIE MUNI ARPT FAIR      76  46  33 S12       30.10S
BOULDER MUN AP FAIR      72  43  35 SE5       30.10S
CENTENNIAL     FAIR      73  53  49 S18G24    30.20R
BROOMFIELD     FAIR      72  46  40 S8        30.15S
FORT COLLINS   FAIR      70  50  49 S9        30.10S
LONGMONT       FAIR      70  49  46 W3        30.11R
$$

COZ041-046-047-076>085-087-088-240700-
...PIKES PEAK/PALMER DIVIDE AND SOUTHERN FOOTHILLS...

CITY           SKY/WX    TMP DP  RH WIND       PRES   REMARKS
COLO. SPRINGS  FAIR      69  56  62 S6        30.28S
A. F. ACADEMY  FAIR      65  53  64 SE9       30.29R
SCHRIEVER AFB  MOCLDY    65  53  66 SE7       30.28S
CHEYENNE MTN   FAIR      69  51  54 S14G21    30.27S
ELLICOTT       FAIR     N/A N/A N/A S10       30.25S
FALCON           N/A     63  52  69 S7        30.34R
FORT CARSON    FAIR      71  54  54 CALM      30.24S
LIMON          FAIR      64  56  75 SE9       30.20F
MONUMENT HILL  FAIR      63  52  67 S15G23    30.32S
CANON CITY     CLEAR     72  57  60 N7        30.20S
WALSENBURG     FAIR      63  54  72 SW6       30.24S
TRINIDAD       FAIR      67  53  61 W10       30.24S
$$

COZ042>045-048>051-090-091-240700-
...NORTHEAST COLORADO...

CITY           SKY/WX    TMP DP  RH WIND       PRES   REMARKS
GREELEY ARPT   FAIR      75  54  47 S10       30.09S
AKRON          FAIR      72  53  51 S15       30.13S
BURLINGTON     FAIR      67  58  72 S10       30.13F
WRAY           NOT AVBL
YUMA           NOT AVBL
STERLING       FAIR      70  55  60 S8        30.06S
HOLYOKE        FAIR      68  55  64 S8        30.07S
FORT MORGAN    FAIR      70  50  48 S8        30.11S
$$

COZ086-089-092>099-240700-
...SOUTHEAST COLORADO...

CITY           SKY/WX    TMP DP  RH WIND       PRES   REMARKS
PUEBLO         FAIR      73  55  53 E8        30.14S
LA JUNTA       FAIR      74  61  63 SE8       30.13S
LAMAR          FAIR      72  61  68 S8        30.09R
SPRINGFIELD      N/A     68  60  75 SE9       30.15R
$$



USA.gov is the U.S. government's official web portal to all federal, state and local government web resources and services.